sat.trackr.live / text

‹ back to catalog

STARLINK-34219

NORAD 64270 · 2025-120Q

PAYLOAD ACTIVE UNKNOWN

§ Identity

Operator
Country
US
Launch date
2025-06-04
Launch site
AFWTR
Launch vehicle
Mass (kg)
RCS (m²)

Purposes: comms

External: N2YO · Heavens-Above · Gunter

§ Orbital elements

Epoch: 2026-05-25T02:49:24.587616Z

Period
94.10 min
Inclination
53.1602°
Eccentricity
0.0001242
Mean motion
15.30208398 rev/d
Perigee alt
474.3 km
Apogee alt
476.0 km
Semi-major
6,853.3 km
B*
4.7331e-4
RAAN
121.9654°
Arg perigee
117.1255°
Mean anomaly
242.9872°
Rev number
5,561

§ Raw data

STARLINK-342191 64270U 25120Q   26145.11764569  .00013688  00000+0  47331-3 0  99922 64270  53.1602 121.9654 0001242 117.1255 242.9872 15.30208398 55617

JSON: /api/v1/satellites/64270 · /tle

For live sub-satellite position, see the globe view (requires WebGL).

§ Visibility from observer

Set your observer location to see the next 7 days of passes ≥ 10°. The values pass through the URL so the page stays shareable.

No JS? Fill the form by hand. The geolocation button needs JavaScript.